Location: Unspecified
(48.8656°N, 0.0000°E)
Time: 16:56:46
(UTC+00:00)

SR - Pass Details

Date: 25 June 2019
Orbit: 580 x 876 km, 66.7° (Epoch: 19 July)

Event Time Altitude Azimuth Distance (km) Brightness Sun altitude
Rises 09:15:11 0° 328° (NNW) 2,943 ? 48.5°
Reaches altitude 10° 09:18:08 10° 349° (N) 2,083 ? 48.9°
Maximum altitude 09:21:16 17° 31° (NNE) 1,701 ? 49.4°
Drops below altitude 10° 09:24:33 10° 72° (ENE) 2,202 ? 49.9°
Sets 09:27:48 0° 92° (E) 3,187 ? 50.4°
